GALAXY 30 (G-30)

Last updated on Sun Jun 21 2026 00:03:08 GMT+0000 (Coordinated Universal Time)

1 46114U 20056C 26171.39489199 .00000032 00000+0 00000+0 0 9991 2 46114 0.0183 12.9122 0002284 75.3591 197.4940 1.00273107 21326
UTC large
Height (km)
Speed (km/s)
/
Latitude / Longitude
Inclination (degrees)
Orbital Period (minutes)
Azimuth
Elevation
Range (km)
Doppler Factor

Next 0 passes for location: London (51.5072 / 0.1276)

No passes found over London.
GALAXY 30 (G-30)